SCP
-0 0 0 0 0 0 0 0 0 0 -0 -0 0 0 0 0 0 0 0 0 -0 -0 -0 -0 -0 -0 -0 0 0 1 1 1 1 0 0 -0 -0 0 0 0 0 0 0
-0 -0 0 0 0 0 0 0 0 0 0 -0 -0 -0 0 0 0 0 0 -0 -0 -0 -0 -0 -0 -0 -0 0 1 1 1 1 1 0 0 0 0 0 0 0 0 0 0
-0 -0 -0 -0 0 0 0 0 0 0 0 0 -0 -0 -0 -0 0 0 0 -0 -0 -0 -0 -0 -0 -0 -0 1 1 1 1 1 1 0 0 0 0 0 0 0 0 0 0
-0 -0 -0 -0 -0 -0 -0 0 0 0 0 0 -0 0 0 0 0 0 0 0 -0 -0 -0 0 0 0 -0 1 1 1 1 1 0 0 0 0 0 0 0 1 1 0 0
-0 -0 -0 -0 -0 -0 -0 -0 0 0 0 0 0 0 0 0 0 0 0 -0 -0 -0 -0 0 0 0 0 1 1 1 1 1 1 0 0 0 0 0 0 0 1 1 1
-0 -0 -0 -0 -0 -0 -0 -0 -0 -0 0 0 0 0 -0 0 0 0 0 -0 -0 -0 -0 0 0 0 0 2 1 1 1 2 1 1 1 1 1 1 1 1 0 1 0
-0 -0 -0 -0 -0 -0 -0 -0 -0 -0 -0 -0 -0 -0 -0 -0 0 0 0 0 -0 -0 -0 -0 -0 0 0 1 2 2 2 2 1 1 1 1 1 1 1 1 1 1 0
-0 -0 -0 -0 -0 -0 -0 -0 -0 -0 -0 -0 -0 -0 -0 0 0 0 0 0 0 0 -0 -0 -0 0 0 2 3 3 3 4 2 1 1 1 2 2 2 2 1 1 0
-0 -0 -0 -0 -0 -0 -0 -0 -0 -0 -0 -0 -0 -0 -0 -0 0 0 0 0 0 -0 -0 -0 0 0 1 3 5 3 5 4 2 1 1 2 2 2 3 2 0 1 0
0 -0 -0 -0 -0 -0 -0 -0 -0 -0 -0 -0 -0 -0 -0 -0 -0 0 0 0 -0 -0 -0 0 0 1 2 3 6 3 4 4 2 4 3 2 2 3 2 1 1 0 0
-0 -0 -0 -0 -0 -0 -0 -0 -0 -0 -0 -0 -0 -0 -0 -0 -0 -0 -0 0 0 0 0 1 1 2 2 4 5 3 7 4 4 3 1 1 2 4 2 1 1 0 0
-0 -0 -0 -0 -0 -0 -0 -0 -0 -0 -0 -0 -0 -0 -0 -1 -0 -0 -0 -0 -0 0 0 1 1 2 3 6 7 3 2 3 2 0 0 1 3 2 2 1 1 1 1
0 -0 -0 -0 -0 0 0 -0 -0 -0 -0 -0 -0 -1 -1 -0 -0 -0 -0 0 0 0 1 1 1 2 3 6 5 0 0 1 1 1 1 2 2 2 1 1 1 0 0
0 -0 -0 -0 0 0 -0 -0 -0 -0 -0 -0 -0 -1 -0 -0 -0 -0 0 0 0 0 1 1 1 1 4 3 2 1 1 1 1 1 2 2 2 1 1 0 1 0 0
0 0 0 0 0 -0 0 -0 -0 -0 -0 -0 -1 -1 -0 0 0 0 0 0 0 0 1 1 1 2 3 2 1 2 1 1 1 2 2 2 0 0 0 0 0 0 0
0 0 0 0 0 -0 -0 -0 -0 -0 -0 -0 -1 -0 -0 0 0 0 0 0 1 1 2 1 2 2 2 1 1 1 1 1 2 2 1 0 0 0 0 0 0 0 0
-0 0 0 0 -0 0 -0 -0 -0 -0 -0 -0 -0 -0 0 0 0 0 1 1 2 3 4 3 2 3 1 1 1 1 1 2 2 1 1 0 0 0 0 0 0 0 0
0 -0 0 0 0 0 0 0 0 0 0 -0 -0 -0 0 0 0 1 1 2 3 5 5 5 4 2 1 0 1 0 2 1 1 1 0 0 0 0 0 0 0 0 0
0 0 0 0 0 0 1 0 0 0 0 0 0 0 0 0 1 1 1 2 5 5 5 4 2 1 0 0 1 0 1 1 1 0 0 0 0 0 0 0 0 0 0
0 0 0 0 0 0 0 0 0 0 0 0 1 1 1 1 1 2 3 6 5 5 4 2 1 0 0 0 0 0 1 1 0 0 0 0 0 0 0 0 0 0 0
0 0 0 0 0 0 0 0 0 1 1 1 2 2 2 1 2 3 5 4 3 2 1 1 1 0 0 0 0 0 0 0 0 0 0 0 0 0 0 0 0 0 0
1 0 0 0 1 0 0 1 1 1 2 2 2 2 2 2 2 3 3 1 1 1 0 0 0 0 0 0 0 0 0 0 0 0 0 0 0 0 0 0 0 0 0
0 0 0 1 2 1 1 2 2 3 3 3 3 2 2 2 3 2 1 0 0 0 0 0 0 0 0 0 0 0 0 0 0 0 0 0 0 0 0 0 0 0 0
1 1 1 1 2 2 4 4 4 3 3 2 2 2 2 3 2 1 0 0 0 0 0 0 0 0 0 0 0 0 0 0 0 0 0 0 0 0 0 0 0 0 0
1 1 2 3 3 5 5 4 4 3 2 2 2 2 1 0 0 0 0 0 0 0 0 0 0 0 0 0 0 0 0 0 0 0 0 0 0 0 0 0 0 0 0
1 1 1 2 4 4 6 5 3 2 2 2 2 1 0 0 0 0 0 -0 0 -0 0 0 0 0 0 0 0 0 0 0 0 0 0 0 0 0 0 0 0 0 0
Wind_Speed_500mb
52 51 51 52 51 48 46 45 44 45 45 45 38 33 28 23 22 21 22 22 18 17 16 10 12 13 16 18 13 25 24 31 30 49 40 27 10 15 13 16 16 22 14
52 55 55 55 58 55 51 49 48 49 50 45 41 34 29 26 24 24 25 26 24 24 22 22 19 22 19 19 27 24 30 32 39 45 24 11 22 7 29 31 20 30 31
58 59 60 60 60 60 57 55 58 54 54 47 40 36 36 32 26 28 29 29 32 32 30 29 28 31 27 33 38 35 33 32 35 43 24 13 17 34 18 15 19 22 23
57 60 62 64 66 63 58 56 61 63 58 56 46 46 39 38 32 30 27 24 23 25 30 35 38 38 29 42 44 39 34 38 41 44 49 38 40 27 29 19 17 24 26
60 63 65 66 65 64 63 59 60 64 62 60 58 52 51 43 37 34 32 30 29 29 27 34 37 42 39 46 48 44 34 37 23 51 40 42 33 31 31 46 30 29 25
62 61 61 59 61 61 62 60 61 66 63 64 62 64 59 52 42 38 35 28 23 24 29 34 37 40 33 48 50 43 40 40 30 56 50 39 38 37 35 39 44 40 29
67 66 65 65 64 65 64 62 60 67 68 68 68 67 67 64 62 57 44 36 30 30 31 37 38 31 34 41 47 45 42 38 36 48 50 42 40 37 33 35 38 38 30
64 70 70 69 67 67 66 64 61 65 64 67 69 67 65 64 59 58 49 40 37 35 35 34 33 35 33 34 41 44 44 34 37 43 53 44 39 44 35 28 28 35 33
58 69 71 70 66 64 67 68 65 65 67 67 64 64 63 63 58 60 55 47 51 41 41 40 37 34 35 40 43 44 49 45 31 47 49 47 37 44 28 27 23 22 40
48 61 69 70 66 63 62 62 64 66 69 67 67 66 64 62 62 64 64 55 45 50 46 44 43 37 38 40 39 31 37 39 40 47 41 45 36 32 24 27 13 21 27
40 55 61 65 65 61 60 62 62 62 65 67 66 66 66 66 64 63 60 59 58 57 49 49 48 43 39 40 35 25 39 57 56 59 47 44 38 27 18 12 17 21 26
38 54 56 59 60 61 61 62 62 61 64 62 61 61 59 60 64 63 60 60 58 57 55 51 47 43 38 45 40 30 78 69 60 50 38 39 29 20 13 13 18 22 26
38 50 53 56 57 59 59 60 60 59 62 67 67 66 65 65 64 61 57 59 58 57 54 47 44 36 38 48 43 63 54 54 37 28 32 26 17 10 10 12 16 23 28
28 42 49 56 56 59 60 56 55 54 59 63 66 65 62 59 58 60 59 54 53 48 44 40 35 34 40 38 41 59 58 35 13 15 19 14 8 7 7 11 19 25 39
20 35 44 48 52 61 63 60 56 56 56 56 54 52 54 56 57 57 51 45 42 35 34 33 33 36 35 31 34 42 35 18 10 19 12 10 12 6 12 14 27 38 28
9 26 37 45 58 69 71 70 68 66 61 58 56 55 57 52 49 43 38 35 34 31 32 33 33 36 32 27 26 29 26 15 22 20 18 6 7 13 18 23 27 28 27
9 19 31 36 57 73 73 73 70 68 62 59 56 49 42 39 32 27 24 23 23 24 27 29 31 33 29 26 26 28 22 24 23 19 10 7 11 12 18 19 20 21 21
23 18 23 26 29 51 66 64 62 63 59 57 46 40 35 28 29 22 19 18 20 24 26 29 29 31 28 30 32 35 33 26 20 17 16 15 9 11 11 11 9 9 10
28 18 18 24 23 36 57 63 62 57 48 45 44 39 28 26 26 20 17 18 24 27 28 31 32 32 47 35 32 35 28 27 25 24 18 12 7 5 11 12 12 9 11
37 31 21 25 21 29 39 43 49 48 49 45 39 34 30 32 28 26 24 26 26 29 37 36 34 43 45 42 38 35 30 31 27 24 19 11 3 6 14 15 13 10 13
38 38 31 25 22 31 38 43 43 42 40 41 39 38 40 35 33 26 26 30 31 38 42 48 46 42 40 44 40 33 30 27 27 24 18 9 2 10 15 15 15 17 18
34 29 31 30 27 34 43 45 44 46 47 46 45 43 39 34 28 25 32 35 41 48 53 58 49 40 45 43 36 27 24 31 27 23 17 7 6 12 14 16 18 23 25
27 23 29 32 30 35 43 49 51 54 53 51 45 41 37 31 27 31 39 45 48 55 57 55 48 45 48 44 35 27 28 26 25 19 12 6 8 11 15 18 17 24 15
21 24 35 35 36 43 48 54 59 57 53 49 45 39 34 33 35 39 41 49 53 56 53 45 40 39 41 43 35 31 29 24 17 15 11 8 10 10 12 17 17 16 18
16 28 36 43 49 53 57 59 58 55 52 47 42 37 33 35 46 51 50 51 49 40 37 37 37 43 40 36 30 30 29 22 15 14 11 9 7 8 8 11 13 15 16
19 31 38 46 60 62 65 60 56 52 47 43 39 35 42 47 50 54 58 56 46 39 38 39 36 40 33 33 31 30 26 18 16 17 12 9 8 8 8 10 12 15 16
Wind_Direction_500mb
200 200 201 201 201 201 201 200 201 204 203 204 205 211 217 226 226 224 224 228 228 239 253 253 276 286 268 258 277 285 316 317 305 326 310 332 345 303 285 296 302 310 313
201 202 202 202 205 206 207 207 206 207 209 209 211 214 223 232 233 233 234 235 236 244 256 260 258 261 259 259 266 286 302 309 303 339 351 6 340 247 301 283 290 308 310
203 203 203 205 205 209 211 210 212 211 213 207 214 221 225 228 233 235 240 246 248 250 256 261 261 253 260 257 263 280 294 296 312 334 349 336 328 322 329 312 293 298 306
207 207 207 208 208 211 211 211 215 217 217 218 214 219 221 230 238 243 244 242 248 260 258 261 261 258 245 255 263 277 293 299 312 326 334 327 319 318 316 322 299 304 310
206 208 209 210 210 210 211 213 215 219 218 222 220 226 232 236 242 244 246 249 247 266 262 262 262 256 250 256 261 273 294 298 303 310 314 319 323 314 299 306 309 307 313
208 208 209 209 209 208 209 210 213 218 221 225 227 229 231 237 235 243 243 250 253 257 258 258 263 260 247 246 261 277 292 290 301 321 296 300 307 307 293 293 303 307 330
207 206 205 206 209 208 208 210 214 220 222 226 230 232 235 241 248 250 249 249 246 248 246 257 260 263 258 242 264 277 287 289 299 299 300 292 301 302 286 281 293 302 318
207 207 206 205 206 207 208 210 214 221 221 226 230 234 238 242 245 249 244 244 244 244 246 249 263 269 253 246 264 273 285 278 294 292 303 285 287 293 279 273 287 308 310
208 208 207 206 205 206 207 210 213 221 225 228 232 235 238 240 240 244 247 249 245 242 249 254 260 261 254 248 262 268 270 271 283 275 300 291 290 299 287 273 289 291 306
206 206 206 206 207 207 209 211 214 219 223 228 233 236 237 239 242 245 250 248 246 257 254 261 267 261 255 248 260 264 271 268 289 277 287 286 291 284 281 277 280 286 296
204 199 200 203 204 206 208 211 214 218 223 227 232 236 239 243 246 249 252 255 258 262 265 261 256 255 251 244 246 241 277 289 281 284 288 278 290 270 277 294 288 293 298
192 188 190 194 196 202 207 211 213 215 220 221 226 232 237 241 247 251 254 256 256 259 260 259 259 252 238 240 226 198 300 282 286 276 281 284 264 261 252 292 287 296 308
173 177 180 186 192 199 205 209 213 216 222 225 228 231 236 242 248 255 260 259 257 257 257 256 251 245 236 244 231 216 267 277 285 265 265 257 242 236 256 286 295 310 307
172 180 183 186 190 197 204 206 209 214 219 226 231 235 240 245 249 252 253 252 253 249 246 242 242 243 238 248 238 234 254 275 268 247 234 222 192 238 280 310 313 314 312
179 195 196 197 197 202 206 210 214 215 218 226 231 236 240 244 247 250 252 253 251 243 237 232 230 236 231 239 244 242 268 238 217 186 201 167 203 262 300 299 291 304 314
204 203 206 207 208 209 210 210 216 220 222 228 233 240 243 247 252 252 252 251 247 234 228 223 215 220 216 225 238 221 243 173 173 186 200 218 286 292 288 293 299 309 323
219 218 217 212 219 218 216 218 218 224 225 231 234 236 241 246 248 249 239 230 221 219 221 208 200 207 202 208 210 192 163 163 182 195 172 143 264 275 290 305 320 338 340
267 254 237 229 232 225 223 219 220 223 221 226 230 236 239 237 234 231 233 211 194 198 197 192 189 184 194 182 174 155 170 166 167 172 208 220 239 272 306 335 338 332 334
265 266 262 267 266 224 216 217 216 219 218 224 224 226 222 210 201 189 188 179 186 184 178 169 172 184 158 159 163 153 149 159 172 191 195 195 234 299 342 356 358 358 357
260 264 263 271 287 213 209 213 215 214 215 213 212 205 193 189 171 167 168 173 169 164 158 156 169 160 144 151 157 155 157 167 174 178 177 180 206 358 1 7 12 14 26
270 263 256 252 256 205 191 196 200 198 196 192 188 181 176 161 164 166 166 165 161 154 151 156 158 148 145 147 159 161 151 162 155 162 157 170 85 14 11 13 35 46 48
275 259 232 232 231 197 192 189 181 177 177 174 170 163 153 156 155 159 155 152 154 154 157 159 146 146 148 149 152 157 157 154 153 148 156 138 50 21 20 41 48 56 44
274 238 206 209 209 191 179 175 169 166 165 159 151 148 147 148 146 153 154 153 158 159 160 154 147 148 154 153 156 155 155 156 147 153 139 106 49 37 39 49 55 52 45
255 204 188 183 177 172 170 166 160 160 155 148 146 148 150 146 145 148 152 155 160 161 161 156 149 151 156 161 159 158 159 151 153 144 132 81 53 78 56 46 41 43 48
218 186 180 165 161 163 163 160 156 153 150 150 148 146 145 149 148 146 150 160 159 157 158 160 158 159 157 162 159 162 152 148 149 144 117 102 96 77 66 58 62 58 50
182 169 162 160 165 161 158 154 155 156 156 153 151 150 150 151 151 150 154 157 161 167 160 160 157 158 164 156 154 155 150 144 142 125 132 128 116 108 86 75 63 59 53
Wind_Speed_850mb
52 51 51 52 51 48 46 45 44 45 45 45 38 33 28 23 22 21 22 22 18 17 16 10 12 13 16 18 13 25 24 31 30 49 40 27 10 15 13 16 16 22 14
52 55 55 55 58 55 51 49 48 49 50 45 41 34 29 26 24 24 25 26 24 24 22 22 19 22 19 19 27 24 30 32 39 45 24 11 22 7 29 31 20 30 31
58 59 60 60 60 60 57 55 58 54 54 47 40 36 36 32 26 28 29 29 32 32 30 29 28 31 27 33 38 35 33 32 35 43 24 13 17 34 18 15 19 22 23
57 60 62 64 66 63 58 56 61 63 58 56 46 46 39 38 32 30 27 24 23 25 30 35 38 38 29 42 44 39 34 38 41 44 49 38 40 27 29 19 17 24 26
60 63 65 66 65 64 63 59 60 64 62 60 58 52 51 43 37 34 32 30 29 29 27 34 37 42 39 46 48 44 34 37 23 51 40 42 33 31 31 46 30 29 25
62 61 61 59 61 61 62 60 61 66 63 64 62 64 59 52 42 38 35 28 23 24 29 34 37 40 33 48 50 43 40 40 30 56 50 39 38 37 35 39 44 40 29
67 66 65 65 64 65 64 62 60 67 68 68 68 67 67 64 62 57 44 36 30 30 31 37 38 31 34 41 47 45 42 38 36 48 50 42 40 37 33 35 38 38 30
64 70 70 69 67 67 66 64 61 65 64 67 69 67 65 64 59 58 49 40 37 35 35 34 33 35 33 34 41 44 44 34 37 43 53 44 39 44 35 28 28 35 33
58 69 71 70 66 64 67 68 65 65 67 67 64 64 63 63 58 60 55 47 51 41 41 40 37 34 35 40 43 44 49 45 31 47 49 47 37 44 28 27 23 22 40
48 61 69 70 66 63 62 62 64 66 69 67 67 66 64 62 62 64 64 55 45 50 46 44 43 37 38 40 39 31 37 39 40 47 41 45 36 32 24 27 13 21 27
40 55 61 65 65 61 60 62 62 62 65 67 66 66 66 66 64 63 60 59 58 57 49 49 48 43 39 40 35 25 39 57 56 59 47 44 38 27 18 12 17 21 26
38 54 56 59 60 61 61 62 62 61 64 62 61 61 59 60 64 63 60 60 58 57 55 51 47 43 38 45 40 30 78 69 60 50 38 39 29 20 13 13 18 22 26
38 50 53 56 57 59 59 60 60 59 62 67 67 66 65 65 64 61 57 59 58 57 54 47 44 36 38 48 43 63 54 54 37 28 32 26 17 10 10 12 16 23 28
28 42 49 56 56 59 60 56 55 54 59 63 66 65 62 59 58 60 59 54 53 48 44 40 35 34 40 38 41 59 58 35 13 15 19 14 8 7 7 11 19 25 39
20 35 44 48 52 61 63 60 56 56 56 56 54 52 54 56 57 57 51 45 42 35 34 33 33 36 35 31 34 42 35 18 10 19 12 10 12 6 12 14 27 38 28
9 26 37 45 58 69 71 70 68 66 61 58 56 55 57 52 49 43 38 35 34 31 32 33 33 36 32 27 26 29 26 15 22 20 18 6 7 13 18 23 27 28 27
9 19 31 36 57 73 73 73 70 68 62 59 56 49 42 39 32 27 24 23 23 24 27 29 31 33 29 26 26 28 22 24 23 19 10 7 11 12 18 19 20 21 21
23 18 23 26 29 51 66 64 62 63 59 57 46 40 35 28 29 22 19 18 20 24 26 29 29 31 28 30 32 35 33 26 20 17 16 15 9 11 11 11 9 9 10
28 18 18 24 23 36 57 63 62 57 48 45 44 39 28 26 26 20 17 18 24 27 28 31 32 32 47 35 32 35 28 27 25 24 18 12 7 5 11 12 12 9 11
37 31 21 25 21 29 39 43 49 48 49 45 39 34 30 32 28 26 24 26 26 29 37 36 34 43 45 42 38 35 30 31 27 24 19 11 3 6 14 15 13 10 13
38 38 31 25 22 31 38 43 43 42 40 41 39 38 40 35 33 26 26 30 31 38 42 48 46 42 40 44 40 33 30 27 27 24 18 9 2 10 15 15 15 17 18
34 29 31 30 27 34 43 45 44 46 47 46 45 43 39 34 28 25 32 35 41 48 53 58 49 40 45 43 36 27 24 31 27 23 17 7 6 12 14 16 18 23 25
27 23 29 32 30 35 43 49 51 54 53 51 45 41 37 31 27 31 39 45 48 55 57 55 48 45 48 44 35 27 28 26 25 19 12 6 8 11 15 18 17 24 15
21 24 35 35 36 43 48 54 59 57 53 49 45 39 34 33 35 39 41 49 53 56 53 45 40 39 41 43 35 31 29 24 17 15 11 8 10 10 12 17 17 16 18
16 28 36 43 49 53 57 59 58 55 52 47 42 37 33 35 46 51 50 51 49 40 37 37 37 43 40 36 30 30 29 22 15 14 11 9 7 8 8 11 13 15 16
19 31 38 46 60 62 65 60 56 52 47 43 39 35 42 47 50 54 58 56 46 39 38 39 36 40 33 33 31 30 26 18 16 17 12 9 8 8 8 10 12 15 16
Wind_Direction_850mb
200 200 201 201 201 201 201 200 201 204 203 204 205 211 217 226 226 224 224 228 228 239 253 253 276 286 268 258 277 285 316 317 305 326 310 332 345 303 285 296 302 310 313
201 202 202 202 205 206 207 207 206 207 209 209 211 214 223 232 233 233 234 235 236 244 256 260 258 261 259 259 266 286 302 309 303 339 351 6 340 247 301 283 290 308 310
203 203 203 205 205 209 211 210 212 211 213 207 214 221 225 228 233 235 240 246 248 250 256 261 261 253 260 257 263 280 294 296 312 334 349 336 328 322 329 312 293 298 306
207 207 207 208 208 211 211 211 215 217 217 218 214 219 221 230 238 243 244 242 248 260 258 261 261 258 245 255 263 277 293 299 312 326 334 327 319 318 316 322 299 304 310
206 208 209 210 210 210 211 213 215 219 218 222 220 226 232 236 242 244 246 249 247 266 262 262 262 256 250 256 261 273 294 298 303 310 314 319 323 314 299 306 309 307 313
208 208 209 209 209 208 209 210 213 218 221 225 227 229 231 237 235 243 243 250 253 257 258 258 263 260 247 246 261 277 292 290 301 321 296 300 307 307 293 293 303 307 330
207 206 205 206 209 208 208 210 214 220 222 226 230 232 235 241 248 250 249 249 246 248 246 257 260 263 258 242 264 277 287 289 299 299 300 292 301 302 286 281 293 302 318
207 207 206 205 206 207 208 210 214 221 221 226 230 234 238 242 245 249 244 244 244 244 246 249 263 269 253 246 264 273 285 278 294 292 303 285 287 293 279 273 287 308 310
208 208 207 206 205 206 207 210 213 221 225 228 232 235 238 240 240 244 247 249 245 242 249 254 260 261 254 248 262 268 270 271 283 275 300 291 290 299 287 273 289 291 306
206 206 206 206 207 207 209 211 214 219 223 228 233 236 237 239 242 245 250 248 246 257 254 261 267 261 255 248 260 264 271 268 289 277 287 286 291 284 281 277 280 286 296
204 199 200 203 204 206 208 211 214 218 223 227 232 236 239 243 246 249 252 255 258 262 265 261 256 255 251 244 246 241 277 289 281 284 288 278 290 270 277 294 288 293 298
192 188 190 194 196 202 207 211 213 215 220 221 226 232 237 241 247 251 254 256 256 259 260 259 259 252 238 240 226 198 300 282 286 276 281 284 264 261 252 292 287 296 308
173 177 180 186 192 199 205 209 213 216 222 225 228 231 236 242 248 255 260 259 257 257 257 256 251 245 236 244 231 216 267 277 285 265 265 257 242 236 256 286 295 310 307
172 180 183 186 190 197 204 206 209 214 219 226 231 235 240 245 249 252 253 252 253 249 246 242 242 243 238 248 238 234 254 275 268 247 234 222 192 238 280 310 313 314 312
179 195 196 197 197 202 206 210 214 215 218 226 231 236 240 244 247 250 252 253 251 243 237 232 230 236 231 239 244 242 268 238 217 186 201 167 203 262 300 299 291 304 314
204 203 206 207 208 209 210 210 216 220 222 228 233 240 243 247 252 252 252 251 247 234 228 223 215 220 216 225 238 221 243 173 173 186 200 218 286 292 288 293 299 309 323
219 218 217 212 219 218 216 218 218 224 225 231 234 236 241 246 248 249 239 230 221 219 221 208 200 207 202 208 210 192 163 163 182 195 172 143 264 275 290 305 320 338 340
267 254 237 229 232 225 223 219 220 223 221 226 230 236 239 237 234 231 233 211 194 198 197 192 189 184 194 182 174 155 170 166 167 172 208 220 239 272 306 335 338 332 334
265 266 262 267 266 224 216 217 216 219 218 224 224 226 222 210 201 189 188 179 186 184 178 169 172 184 158 159 163 153 149 159 172 191 195 195 234 299 342 356 358 358 357
260 264 263 271 287 213 209 213 215 214 215 213 212 205 193 189 171 167 168 173 169 164 158 156 169 160 144 151 157 155 157 167 174 178 177 180 206 358 1 7 12 14 26
270 263 256 252 256 205 191 196 200 198 196 192 188 181 176 161 164 166 166 165 161 154 151 156 158 148 145 147 159 161 151 162 155 162 157 170 85 14 11 13 35 46 48
275 259 232 232 231 197 192 189 181 177 177 174 170 163 153 156 155 159 155 152 154 154 157 159 146 146 148 149 152 157 157 154 153 148 156 138 50 21 20 41 48 56 44
274 238 206 209 209 191 179 175 169 166 165 159 151 148 147 148 146 153 154 153 158 159 160 154 147 148 154 153 156 155 155 156 147 153 139 106 49 37 39 49 55 52 45
255 204 188 183 177 172 170 166 160 160 155 148 146 148 150 146 145 148 152 155 160 161 161 156 149 151 156 161 159 158 159 151 153 144 132 81 53 78 56 46 41 43 48
218 186 180 165 161 163 163 160 156 153 150 150 148 146 145 149 148 146 150 160 159 157 158 160 158 159 157 162 159 162 152 148 149 144 117 102 96 77 66 58 62 58 50
182 169 162 160 165 161 158 154 155 156 156 153 151 150 150 151 151 150 154 157 161 167 160 160 157 158 164 156 154 155 150 144 142 125 132 128 116 108 86 75 63 59 53